FlightSource - Aviation Photo Database

World Wide Airport Lookup


Search by ICAO
Or
Search by City

FlightSource.ca - Aviation Photo Database - Wellington International Airport Information
Airport Identification
Name: Wellington International Airport
ICAO: NZWN
IATA: WLG
Airport Location
City: Wellington
Region: WGN
Country: New Zealand
Continent: OC
Latitude: -41.3272
Longitude: 174.805
Airport Information
Type: Large Airport
Elevation: 41 Feet ASL
Flight Status: NZWN
More Info: NZWN
Airport Weather    
Metar: NZWN 230330Z AUTO 21010KT 9999 NCD 17/13 Q1026 NOSIG
TAF:


Advertisement